QPF
0.01 0.01 0.00 0.00 0.00 0.00 0.00 0.00 0.00 0.00 0.00 0.00 0.00 0.00 0.00 0.00 0.00 0.00 0.00 0.01 0.01 0.01 0.01 0.02 0.02 0.02 0.02 0.02 0.02 0.02 0.02 0.02 0.02 0.02 0.03 0.03 0.04 0.05
0.01 0.01 0.00 0.00 0.00 0.00 0.00 0.00 0.00 0.01 0.01 0.00 0.00 0.00 0.00 0.00 0.00 0.00 0.00 0.00 0.00 0.01 0.01 0.01 0.01 0.01 0.01 0.02 0.02 0.02 0.02 0.02 0.02 0.02 0.03 0.03 0.04 0.04
0.01 0.01 0.01 0.01 0.01 0.01 0.01 0.01 0.01 0.01 0.01 0.00 0.00 0.00 0.00 0.00 0.00 0.00 0.00 0.01 0.00 0.00 0.01 0.01 0.01 0.02 0.02 0.02 0.02 0.02 0.02 0.02 0.02 0.02 0.03 0.03 0.03 0.03
0.01 0.01 0.01 0.01 0.01 0.01 0.01 0.01 0.01 0.01 0.01 0.01 0.00 0.00 0.00 0.00 0.00 0.00 0.00 0.01 0.00 0.00 0.01 0.01 0.01 0.01 0.01 0.02 0.02 0.01 0.01 0.01 0.02 0.02 0.02 0.02 0.02 0.03
0.01 0.01 0.01 0.01 0.01 0.02 0.01 0.01 0.01 0.01 0.02 0.02 0.01 0.01 0.01 0.00 0.00 0.00 0.00 0.01 0.00 0.00 0.00 0.00 0.00 0.01 0.01 0.01 0.01 0.01 0.01 0.01 0.01 0.02 0.02 0.02 0.02 0.03
0.01 0.01 0.01 0.01 0.02 0.02 0.02 0.02 0.03 0.03 0.03 0.03 0.02 0.01 0.01 0.00 0.00 0.00 0.00 0.00 0.00 0.00 0.00 0.00 0.00 0.00 0.00 0.00 0.01 0.01 0.01 0.01 0.01 0.01 0.01 0.01 0.02 0.02
0.01 0.01 0.01 0.01 0.01 0.02 0.02 0.03 0.03 0.03 0.03 0.02 0.02 0.01 0.01 0.01 0.01 0.01 0.01 0.01 0.01 0.01 0.00 0.00 0.00 0.00 0.00 0.01 0.01 0.01 0.01 0.01 0.01 0.01 0.01 0.02 0.02 0.02
0.00 0.00 0.00 0.01 0.01 0.01 0.02 0.03 0.03 0.03 0.04 0.03 0.03 0.02 0.01 0.01 0.01 0.01 0.01 0.01 0.01 0.01 0.00 0.00 0.00 0.00 0.01 0.01 0.01 0.01 0.02 0.01 0.01 0.01 0.02 0.02 0.02 0.02
0.00 0.00 0.00 0.00 0.01 0.01 0.01 0.02 0.02 0.02 0.03 0.03 0.03 0.03 0.02 0.02 0.02 0.02 0.02 0.02 0.02 0.01 0.01 0.01 0.00 0.01 0.01 0.01 0.02 0.02 0.02 0.02 0.02 0.02 0.02 0.02 0.02 0.03
0.00 0.00 0.00 0.00 0.01 0.01 0.01 0.01 0.01 0.01 0.01 0.02 0.02 0.02 0.02 0.03 0.03 0.03 0.02 0.02 0.01 0.01 0.01 0.02 0.01 0.01 0.01 0.02 0.02 0.01 0.01 0.01 0.02 0.02 0.03 0.03 0.04 0.05
0.00 0.00 0.00 0.00 0.01 0.02 0.01 0.01 0.01 0.01 0.01 0.01 0.01 0.01 0.01 0.02 0.03 0.03 0.02 0.02 0.01 0.01 0.02 0.02 0.01 0.01 0.02 0.02 0.02 0.02 0.03 0.03 0.03 0.05 0.06 0.06 0.06 0.06
0.01 0.00 0.00 0.01 0.01 0.01 0.01 0.01 0.01 0.01 0.01 0.01 0.01 0.01 0.01 0.01 0.01 0.02 0.03 0.03 0.02 0.02 0.02 0.03 0.02 0.02 0.02 0.02 0.03 0.04 0.05 0.05 0.06 0.08 0.09 0.07 0.06 0.05
0.02 0.01 0.01 0.01 0.01 0.01 0.01 0.01 0.01 0.01 0.01 0.01 0.01 0.01 0.01 0.01 0.01 0.01 0.02 0.03 0.03 0.03 0.03 0.04 0.04 0.02 0.03 0.03 0.03 0.04 0.06 0.07 0.07 0.07 0.07 0.06 0.05 0.05
0.01 0.01 0.01 0.01 0.01 0.01 0.01 0.01 0.01 0.01 0.01 0.01 0.01 0.01 0.01 0.01 0.01 0.01 0.02 0.02 0.03 0.03 0.03 0.03 0.04 0.04 0.04 0.03 0.02 0.02 0.03 0.04 0.04 0.03 0.03 0.03 0.03 0.03
0.01 0.01 0.01 0.01 0.01 0.01 0.01 0.01 0.01 0.01 0.01 0.02 0.02 0.02 0.01 0.01 0.01 0.01 0.01 0.01 0.01 0.01 0.01 0.02 0.03 0.03 0.04 0.04 0.03 0.02 0.01 0.02 0.02 0.02 0.02 0.02 0.02 0.02
0.01 0.01 0.02 0.02 0.02 0.01 0.01 0.01 0.01 0.01 0.02 0.02 0.02 0.02 0.01 0.01 0.01 0.01 0.01 0.01 0.01 0.01 0.01 0.01 0.01 0.02 0.03 0.03 0.03 0.02 0.02 0.02 0.02 0.02 0.02 0.02 0.02 0.03
0.01 0.01 0.01 0.02 0.01 0.01 0.01 0.01 0.01 0.01 0.01 0.01 0.01 0.01 0.02 0.02 0.01 0.01 0.01 0.01 0.01 0.01 0.01 0.01 0.01 0.01 0.01 0.02 0.03 0.03 0.03 0.03 0.02 0.02 0.02 0.02 0.02 0.02
0.01 0.01 0.01 0.01 0.01 0.01 0.01 0.01 0.01 0.01 0.01 0.01 0.01 0.01 0.01 0.01 0.01 0.01 0.01 0.01 0.01 0.01 0.01 0.01 0.01 0.01 0.01 0.01 0.02 0.03 0.03 0.03 0.02 0.02 0.02 0.03 0.04 0.04
0.01 0.01 0.01 0.01 0.01 0.01 0.01 0.01 0.01 0.01 0.01 0.01 0.01 0.02 0.02 0.02 0.01 0.01 0.01 0.01 0.01 0.01 0.01 0.01 0.01 0.02 0.02 0.02 0.01 0.02 0.03 0.03 0.02 0.02 0.02 0.03 0.05 0.05
0.01 0.01 0.01 0.01 0.01 0.01 0.01 0.01 0.01 0.01 0.01 0.01 0.01 0.02 0.02 0.02 0.02 0.02 0.02 0.02 0.02 0.01 0.01 0.01 0.02 0.02 0.04 0.04 0.03 0.03 0.02 0.03 0.03 0.02 0.02 0.02 0.03 0.03
0.01 0.01 0.01 0.01 0.01 0.02 0.02 0.02 0.02 0.02 0.01 0.01 0.01 0.02 0.02 0.02 0.02 0.02 0.02 0.02 0.02 0.02 0.02 0.02 0.01 0.02 0.02 0.03 0.04 0.03 0.03 0.02 0.03 0.03 0.02 0.02 0.02 0.03
0.01 0.01 0.02 0.02 0.02 0.02 0.01 0.02 0.02 0.02 0.01 0.01 0.01 0.02 0.02 0.02 0.02 0.02 0.02 0.02 0.02 0.02 0.02 0.01 0.01 0.01 0.02 0.03 0.04 0.03 0.02 0.02 0.02 0.02 0.02 0.03 0.04 0.05
0.02 0.02 0.02 0.02 0.02 0.02 0.02 0.02 0.02 0.02 0.02 0.02 0.02 0.02 0.01 0.01 0.02 0.02 0.02 0.02 0.01 0.01 0.01 0.01 0.01 0.01 0.02 0.02 0.03 0.03 0.02 0.02 0.02 0.02 0.02 0.02 0.03 0.04
MSLP
1019.07 1019.40 1019.68 1019.94 1020.18 1020.41 1020.64 1020.87 1021.12 1021.39 1021.68 1021.98 1022.30 1022.63 1022.94 1023.23 1023.49 1023.68 1023.79 1023.81 1023.70 1023.47 1023.11 1022.63 1022.05 1021.37 1020.61 1019.81 1018.96 1018.08 1017.16 1016.21 1015.19 1014.09 1012.89 1011.55 1010.08 1008.47
1018.49 1018.83 1019.13 1019.41 1019.67 1019.93 1020.21 1020.49 1020.79 1021.11 1021.43 1021.77 1022.10 1022.44 1022.77 1023.07 1023.35 1023.57 1023.72 1023.78 1023.73 1023.55 1023.25 1022.83 1022.29 1021.65 1020.93 1020.16 1019.34 1018.49 1017.60 1016.67 1015.68 1014.60 1013.41 1012.09 1010.62 1009.01
1017.84 1018.20 1018.52 1018.81 1019.11 1019.41 1019.73 1020.06 1020.41 1020.77 1021.13 1021.50 1021.85 1022.20 1022.53 1022.85 1023.13 1023.37 1023.56 1023.66 1023.66 1023.55 1023.31 1022.95 1022.47 1021.89 1021.23 1020.50 1019.72 1018.91 1018.06 1017.16 1016.20 1015.15 1013.99 1012.69 1011.24 1009.66
1017.11 1017.49 1017.84 1018.17 1018.50 1018.84 1019.20 1019.58 1019.96 1020.36 1020.75 1021.13 1021.50 1021.85 1022.19 1022.51 1022.81 1023.07 1023.29 1023.44 1023.50 1023.45 1023.29 1023.01 1022.61 1022.10 1021.50 1020.83 1020.11 1019.34 1018.53 1017.68 1016.76 1015.75 1014.62 1013.36 1011.96 1010.43
1016.30 1016.74 1017.13 1017.50 1017.86 1018.24 1018.63 1019.03 1019.45 1019.86 1020.26 1020.65 1021.02 1021.38 1021.72 1022.05 1022.37 1022.66 1022.92 1023.12 1023.25 1023.29 1023.21 1023.02 1022.70 1022.28 1021.76 1021.16 1020.49 1019.78 1019.02 1018.21 1017.33 1016.36 1015.29 1014.09 1012.75 1011.29
1015.44 1015.93 1016.38 1016.80 1017.21 1017.61 1018.03 1018.44 1018.86 1019.27 1019.67 1020.06 1020.42 1020.78 1021.12 1021.47 1021.81 1022.15 1022.46 1022.73 1022.94 1023.07 1023.09 1022.99 1022.77 1022.44 1022.00 1021.47 1020.86 1020.20 1019.49 1018.73 1017.89 1016.98 1015.97 1014.84 1013.59 1012.22
1014.55 1015.11 1015.61 1016.09 1016.54 1016.97 1017.40 1017.82 1018.24 1018.64 1019.02 1019.39 1019.75 1020.10 1020.46 1020.82 1021.20 1021.59 1021.96 1022.31 1022.61 1022.83 1022.95 1022.95 1022.83 1022.58 1022.22 1021.76 1021.21 1020.60 1019.93 1019.21 1018.42 1017.56 1016.62 1015.57 1014.42 1013.17
1013.66 1014.27 1014.83 1015.36 1015.86 1016.33 1016.77 1017.20 1017.60 1017.99 1018.36 1018.71 1019.06 1019.42 1019.79 1020.19 1020.61 1021.05 1021.50 1021.93 1022.32 1022.63 1022.84 1022.93 1022.89 1022.72 1022.43 1022.03 1021.53 1020.96 1020.33 1019.65 1018.91 1018.10 1017.23 1016.27 1015.22 1014.09
1012.78 1013.43 1014.05 1014.64 1015.18 1015.68 1016.15 1016.59 1017.00 1017.39 1017.75 1018.11 1018.46 1018.83 1019.23 1019.66 1020.14 1020.64 1021.15 1021.65 1022.12 1022.51 1022.79 1022.96 1022.99 1022.88 1022.65 1022.29 1021.83 1021.30 1020.70 1020.05 1019.36 1018.61 1017.80 1016.93 1015.99 1014.99
1011.95 1012.63 1013.29 1013.91 1014.50 1015.05 1015.56 1016.03 1016.47 1016.88 1017.26 1017.64 1018.02 1018.42 1018.86 1019.33 1019.85 1020.40 1020.97 1021.53 1022.05 1022.50 1022.84 1023.06 1023.14 1023.08 1022.89 1022.57 1022.14 1021.64 1021.07 1020.46 1019.80 1019.10 1018.36 1017.57 1016.74 1015.85
1011.21 1011.88 1012.55 1013.20 1013.83 1014.43 1015.00 1015.53 1016.02 1016.48 1016.92 1017.35 1017.78 1018.23 1018.72 1019.24 1019.80 1020.39 1020.99 1021.59 1022.14 1022.62 1022.99 1023.25 1023.36 1023.33 1023.17 1022.88 1022.49 1022.02 1021.48 1020.90 1020.29 1019.64 1018.96 1018.25 1017.50 1016.71
1010.58 1011.20 1011.85 1012.52 1013.19 1013.84 1014.48 1015.08 1015.66 1016.21 1016.73 1017.24 1017.75 1018.26 1018.80 1019.36 1019.95 1020.57 1021.19 1021.79 1022.35 1022.84 1023.23 1023.50 1023.64 1023.64 1023.50 1023.25 1022.90 1022.46 1021.97 1021.43 1020.86 1020.26 1019.64 1018.99 1018.32 1017.62
1010.08 1010.63 1011.23 1011.89 1012.58 1013.28 1013.99 1014.69 1015.38 1016.03 1016.66 1017.27 1017.86 1018.45 1019.04 1019.64 1020.26 1020.88 1021.50 1022.10 1022.65 1023.13 1023.52 1023.80 1023.95 1023.98 1023.88 1023.68 1023.37 1022.99 1022.54 1022.05 1021.53 1020.98 1020.41 1019.82 1019.21 1018.58
1009.74 1010.17 1010.70 1011.32 1012.02 1012.76 1013.54 1014.34 1015.13 1015.90 1016.64 1017.36 1018.04 1018.71 1019.35 1019.99 1020.62 1021.23 1021.84 1022.42 1022.95 1023.41 1023.80 1024.09 1024.27 1024.33 1024.29 1024.14 1023.89 1023.58 1023.19 1022.77 1022.30 1021.80 1021.28 1020.74 1020.18 1019.60
1009.53 1009.84 1010.28 1010.85 1011.52 1012.29 1013.12 1013.99 1014.88 1015.75 1016.61 1017.42 1018.20 1018.93 1019.62 1020.28 1020.92 1021.53 1022.11 1022.67 1023.18 1023.63 1024.02 1024.32 1024.54 1024.66 1024.67 1024.60 1024.43 1024.19 1023.88 1023.52 1023.12 1022.68 1022.21 1021.71 1021.19 1020.66
1009.46 1009.63 1009.97 1010.46 1011.10 1011.86 1012.72 1013.64 1014.60 1015.56 1016.50 1017.40 1018.24 1019.03 1019.76 1020.44 1021.08 1021.68 1022.25 1022.78 1023.28 1023.73 1024.13 1024.47 1024.73 1024.91 1025.01 1025.02 1024.94 1024.78 1024.56 1024.27 1023.93 1023.54 1023.12 1022.67 1022.19 1021.70
1009.49 1009.55 1009.78 1010.18 1010.76 1011.48 1012.33 1013.27 1014.26 1015.27 1016.27 1017.23 1018.12 1018.95 1019.71 1020.41 1021.05 1021.64 1022.20 1022.73 1023.23 1023.70 1024.12 1024.50 1024.83 1025.08 1025.26 1025.35 1025.36 1025.30 1025.15 1024.94 1024.66 1024.33 1023.96 1023.56 1023.13 1022.67
1009.62 1009.57 1009.70 1010.01 1010.51 1011.17 1011.98 1012.89 1013.88 1014.90 1015.92 1016.90 1017.82 1018.68 1019.46 1020.17 1020.82 1021.42 1021.98 1022.52 1023.04 1023.53 1024.00 1024.43 1024.81 1025.14 1025.40 1025.58 1025.68 1025.69 1025.62 1025.48 1025.27 1025.00 1024.68 1024.32 1023.93 1023.53
1009.82 1009.69 1009.72 1009.94 1010.34 1010.92 1011.66 1012.52 1013.46 1014.46 1015.46 1016.44 1017.37 1018.24 1019.03 1019.76 1020.42 1021.04 1021.63 1022.19 1022.73 1023.27 1023.78 1024.27 1024.72 1025.12 1025.45 1025.71 1025.88 1025.97 1025.96 1025.88 1025.72 1025.51 1025.24 1024.94 1024.60 1024.25
1010.06 1009.87 1009.82 1009.95 1010.25 1010.74 1011.38 1012.16 1013.03 1013.97 1014.94 1015.89 1016.82 1017.69 1018.49 1019.24 1019.93 1020.58 1021.19 1021.79 1022.38 1022.95 1023.52 1024.06 1024.57 1025.03 1025.43 1025.75 1025.98 1026.12 1026.18 1026.15 1026.05 1025.89 1025.67 1025.43 1025.15 1024.86
1010.32 1010.08 1009.98 1010.02 1010.22 1010.60 1011.14 1011.81 1012.60 1013.46 1014.37 1015.30 1016.20 1017.07 1017.89 1018.66 1019.38 1020.07 1020.73 1021.37 1022.00 1022.63 1023.24 1023.84 1024.40 1024.91 1025.36 1025.73 1026.01 1026.20 1026.30 1026.32 1026.27 1026.16 1026.01 1025.82 1025.61 1025.39
1010.57 1010.31 1010.14 1010.11 1010.21 1010.49 1010.91 1011.48 1012.17 1012.96 1013.80 1014.68 1015.57 1016.44 1017.27 1018.07 1018.83 1019.56 1020.26 1020.95 1021.63 1022.31 1022.97 1023.61 1024.21 1024.77 1025.26 1025.67 1025.99 1026.23 1026.38 1026.44 1026.44 1026.39 1026.29 1026.17 1026.02 1025.86
1010.77 1010.49 1010.28 1010.17 1010.19 1010.36 1010.68 1011.14 1011.74 1012.44 1013.23 1014.07 1014.93 1015.80 1016.65 1017.47 1018.27 1019.05 1019.80 1020.54 1021.27 1021.99 1022.70 1023.38 1024.02 1024.61 1025.14 1025.59 1025.95 1026.23 1026.42 1026.54 1026.59 1026.59 1026.56 1026.50 1026.42 1026.33
Thickness
5549 5546 5544 5541 5537 5534 5530 5527 5525 5527 5530 5526 5519 5513 5507 5503 5499 5495 5493 5489 5485 5481 5477 5474 5471 5469 5467 5465 5463 5461 5460 5458 5457 5456 5455 5456 5456 5458
5539 5537 5535 5532 5529 5525 5521 5517 5514 5512 5514 5515 5510 5504 5499 5495 5491 5487 5484 5481 5477 5473 5469 5466 5463 5460 5458 5456 5454 5453 5451 5449 5448 5447 5447 5447 5448 5449
5531 5529 5526 5523 5520 5516 5512 5509 5505 5502 5503 5505 5500 5496 5491 5487 5484 5480 5476 5473 5471 5466 5462 5458 5455 5453 5451 5449 5447 5445 5443 5441 5440 5439 5439 5439 5440 5442
5523 5520 5517 5514 5511 5508 5504 5501 5497 5494 5492 5494 5492 5488 5483 5479 5475 5472 5469 5466 5462 5459 5455 5452 5449 5446 5444 5442 5440 5437 5436 5434 5433 5432 5432 5432 5433 5434
5514 5511 5508 5505 5503 5499 5495 5492 5489 5486 5483 5482 5482 5478 5475 5470 5468 5465 5461 5458 5455 5451 5449 5446 5443 5440 5438 5436 5433 5431 5429 5428 5427 5426 5425 5425 5426 5426
5504 5502 5499 5496 5494 5490 5487 5484 5481 5478 5475 5473 5472 5470 5466 5462 5458 5457 5457 5453 5449 5446 5443 5440 5438 5435 5433 5431 5428 5426 5424 5422 5420 5420 5419 5419 5419 5419
5495 5493 5489 5486 5483 5480 5478 5475 5472 5470 5467 5465 5463 5461 5458 5454 5451 5448 5446 5445 5443 5439 5437 5435 5432 5431 5429 5426 5423 5421 5419 5417 5415 5415 5414 5414 5414 5414
5486 5483 5480 5477 5474 5471 5468 5466 5463 5461 5459 5456 5455 5452 5450 5446 5442 5438 5436 5435 5436 5433 5428 5429 5426 5425 5423 5421 5419 5416 5414 5412 5411 5411 5410 5409 5409 5410
5477 5474 5471 5468 5465 5463 5460 5458 5456 5452 5449 5447 5446 5444 5441 5438 5434 5431 5427 5424 5423 5422 5420 5423 5421 5419 5418 5417 5414 5412 5410 5409 5408 5408 5407 5406 5406 5406
5467 5465 5462 5459 5457 5455 5453 5451 5449 5446 5443 5440 5438 5436 5432 5429 5425 5422 5419 5418 5418 5416 5412 5414 5416 5414 5413 5412 5411 5408 5406 5406 5406 5406 5405 5404 5403 5403
5457 5454 5452 5450 5448 5446 5445 5444 5442 5439 5435 5432 5430 5427 5425 5422 5418 5415 5414 5412 5413 5413 5408 5405 5408 5408 5409 5409 5408 5406 5404 5403 5403 5403 5402 5401 5400 5401
5448 5446 5443 5441 5439 5436 5435 5434 5433 5432 5429 5427 5425 5423 5420 5417 5413 5409 5407 5405 5404 5405 5404 5399 5399 5398 5404 5407 5404 5403 5402 5401 5401 5401 5400 5398 5398 5398
5439 5437 5435 5432 5430 5428 5426 5425 5423 5421 5420 5419 5418 5416 5414 5411 5408 5405 5401 5398 5397 5397 5395 5392 5392 5392 5391 5397 5401 5399 5398 5398 5398 5397 5397 5396 5395 5394
5429 5428 5425 5424 5422 5420 5417 5415 5414 5413 5412 5411 5410 5409 5408 5405 5403 5400 5397 5395 5392 5391 5390 5387 5387 5386 5387 5390 5393 5396 5395 5394 5393 5393 5393 5393 5393 5393
5420 5418 5417 5415 5414 5412 5409 5407 5406 5405 5404 5404 5402 5401 5399 5398 5396 5395 5394 5393 5391 5390 5388 5386 5384 5384 5383 5384 5387 5389 5391 5391 5390 5389 5389 5389 5389 5390
5410 5409 5408 5407 5405 5403 5402 5400 5398 5397 5396 5395 5394 5393 5392 5391 5390 5390 5390 5389 5389 5389 5387 5385 5383 5382 5382 5383 5383 5385 5386 5386 5387 5386 5386 5386 5387 5387
5400 5400 5400 5399 5398 5396 5394 5393 5391 5389 5388 5388 5386 5386 5386 5385 5384 5384 5384 5384 5384 5385 5385 5384 5383 5381 5381 5381 5382 5383 5383 5383 5383 5383 5383 5384 5385 5385
5391 5392 5391 5391 5389 5388 5386 5385 5383 5382 5381 5380 5380 5379 5379 5379 5379 5378 5378 5379 5379 5380 5380 5380 5380 5381 5382 5383 5379 5379 5379 5379 5379 5379 5380 5381 5383 5383
5381 5382 5382 5381 5381 5380 5378 5377 5376 5375 5374 5373 5373 5373 5373 5373 5373 5373 5374 5374 5375 5376 5376 5376 5376 5376 5378 5379 5379 5375 5374 5375 5376 5377 5377 5378 5379 5381
5371 5372 5372 5372 5371 5371 5370 5370 5369 5368 5368 5367 5367 5367 5367 5367 5368 5369 5369 5369 5370 5372 5373 5373 5372 5371 5371 5370 5371 5372 5370 5370 5372 5373 5374 5376 5377 5378
5362 5363 5363 5363 5363 5363 5363 5363 5362 5362 5362 5362 5362 5362 5362 5362 5363 5364 5365 5365 5366 5368 5369 5370 5369 5368 5367 5368 5369 5370 5370 5368 5367 5368 5370 5372 5374 5377
5354 5354 5354 5354 5355 5355 5356 5356 5356 5357 5357 5357 5357 5357 5358 5358 5359 5360 5361 5362 5363 5364 5364 5365 5366 5366 5366 5366 5366 5367 5367 5367 5367 5367 5366 5367 5367 5369
5345 5346 5346 5347 5348 5348 5349 5350 5350 5351 5352 5352 5353 5353 5354 5355 5355 5356 5357 5358 5359 5360 5361 5362 5363 5364 5363 5363 5363 5363 5363 5364 5366 5367 5367 5365 5365 5366